Weather History for Fort Smith, AR

Change the Weather History Date:

Sunday, October 7, 2012

  Actual Average Record
Temperature  
Mean Temperature 50 °F 66 °F  
Max Temperature 59 °F 78 °F 94 °F (1963)
Min Temperature 40 °F 54 °F 34 °F (1954)
Degree Days  
Heating Degree Days 15 3  
Month to date heating degree days 36 16  
Since 1 July heating degree days 36 33  
Cooling Degree Days 0 3  
Month to date cooling degree days 19 27  
Year to date cooling degree days 2811 2005  
Moisture  
Dew Point 36 °F    
Average Humidity 61    
Maximum Humidity 86    
Minimum Humidity 36    
Precipitation  
Precipitation 0.08 in 0.13 in 1.46 in (1925)
Month to date precipitation 0.26 0.93  
Year to date precipitation 28.51 34.34  
Sea Level Pressure  
Sea Level Pressure 30.27 in    
Wind  
Wind Speed 5 mph (North)    
Max Wind Speed 15 mph    
Max Gust Speed 17 mph    
Visibility 10 miles    
Events Rain    
T = Trace of Precipitation, MM = Missing Value Source: NWS Daily Summary

Daily Weather History Graph

Daily Weather History Graph

Search for Another Location

Airport:

Trip Planner

Search our weather history database for the weather conditions in past years. The results will help you decide how hot, cold, wet, or windy it might be!

Date:

Astronomy

Oct. 07, 2012 Rise Set
Actual Time 7:17 AM CDT 6:52 PM CDT
Civil Twilight 6:52 AM CDT 7:17 PM CDT
Nautical Twilight 6:22 AM CDT 7:46 PM CDT
Astronomical Twilight 5:53 AM CDT 8:16 PM CDT
Moon No Moon Rise 1:46 PM CDT (10/7)
Length of Visible Light 12h 25m
Length of Day
11h 34m
Waning Gibbous, 56% of the Moon is Illuminated
Oct 7
Waning Gibbous
Oct 8
Last Quarter
Oct 15
New
Oct 21
First Quarter
Oct 29
Full

Hourly Weather History & Observations

Time (CDT) Temp. Windchill Dew Point Humidity Pressure Visibility Wind Dir Wind Speed Gust Speed Precip Events Conditions
12:53 AM 48.0 °F - 37.9 °F 68% 30.30 in 10.0 mi North 5.8 mph - N/A   Overcast
1:53 AM 46.0 °F 43.1 °F 36.0 °F 68% 30.30 in 10.0 mi North 5.8 mph - N/A   Mostly Cloudy
2:53 AM 44.1 °F 40.8 °F 37.0 °F 76% 30.31 in 10.0 mi NW 5.8 mph - N/A   Clear
3:53 AM 43.0 °F 40.3 °F 35.1 °F 74% 30.31 in 10.0 mi NNW 4.6 mph - N/A   Clear
4:53 AM 43.0 °F 41.3 °F 35.1 °F 74% 30.29 in 10.0 mi North 3.5 mph - N/A   Clear
5:53 AM 42.1 °F 39.2 °F 36.0 °F 79% 30.30 in 10.0 mi NNW 4.6 mph - N/A   Partly Cloudy
6:53 AM 39.9 °F - 36.0 °F 86% 30.30 in 10.0 mi Calm Calm - N/A   Clear
7:53 AM 41.0 °F - 37.0 °F 86% 30.31 in 10.0 mi Calm Calm - N/A   Clear
8:53 AM 45.0 °F - 37.0 °F 74% 30.32 in 10.0 mi Calm Calm - N/A   Clear
9:53 AM 48.0 °F - 36.0 °F 63% 30.33 in 10.0 mi NE 5.8 mph - N/A   Clear
10:53 AM 52.0 °F - 34.0 °F 50% 30.32 in 10.0 mi NE 10.4 mph - N/A   Clear
11:53 AM 53.1 °F - 33.1 °F 47% 30.32 in 10.0 mi NE 4.6 mph - N/A   Clear
12:53 PM 55.0 °F - 33.1 °F 43% 30.28 in 10.0 mi Variable 6.9 mph - N/A   Clear
1:53 PM 55.0 °F - 32.0 °F 42% 30.26 in 10.0 mi Calm Calm - N/A   Clear
2:53 PM 57.0 °F - 30.9 °F 37% 30.23 in 10.0 mi Calm Calm - N/A   Clear
3:53 PM 57.9 °F - 32.0 °F 37% 30.21 in 10.0 mi Calm Calm - N/A   Scattered Clouds
4:53 PM 57.0 °F - 35.1 °F 44% 30.20 in 10.0 mi NNW 9.2 mph - N/A   Scattered Clouds
5:53 PM 55.0 °F - 34.0 °F 45% 30.22 in 10.0 mi NNW 8.1 mph - N/A   Overcast
6:53 PM 54.0 °F - 35.1 °F 49% 30.21 in 10.0 mi North 9.2 mph - N/A   Overcast
7:53 PM 52.0 °F - 37.9 °F 59% 30.22 in 10.0 mi North 8.1 mph - N/A   Overcast
8:53 PM 48.9 °F - 41.0 °F 74% 30.24 in 10.0 mi NNW 11.5 mph - 0.00 in Rain Light Rain
9:53 PM 46.9 °F - 42.1 °F 83% 30.26 in 9.0 mi NNW 10.4 mph - 0.04 in Rain Light Rain
10:53 PM 46.0 °F 44.8 °F 42.1 °F 86% 30.26 in 10.0 mi North 3.5 mph - 0.04 in   Overcast
11:53 PM 46.9 °F - 42.1 °F 83% 30.25 in 10.0 mi Calm Calm - N/A   Overcast